EW9530 Weather Reports


time (UTC)temp
C
wind
direction
speed
KPH
gust
KPH
rain 1hr
cm
rain 24hr
cm
rain mn
cm
humidity
%
barometer
mb
20260502123158 20 105 3.2 11.3 0.00 0.00 0.00 55 1022.9
20260502121651 20 130 1.6 16.1 0.00 0.00 0.00 54 1023.2
20260502120148 20 127 1.6 11.3 0.00 0.00 0.00 56 1023.3
20260502114654 19 70 0.0 4.8 0.00 0.00 0.00 62 1023.4
20260502113159 18 15 0.0 4.8 0.00 0.00 0.00 64 1023.6
20260502111502 18 15 0.0 4.8 0.00 0.00 0.00 67 1023.8
20260502104651 18 327 0.0 6.4 0.00 0.00 0.00 69 1023.9
20260502103138 18 329 0.0 6.4 0.00 0.00 0.00 72 1024.1
20260502101650 17 344 0.0 6.4 0.00 0.00 0.00 71 1024.4
20260502090149 16 5 6.4 9.7 0.00 0.00 0.00 79 1024.7
20260502064636 15 327 0.0 0.0 0.00 0.00 0.00 84 1024.7
20260502063137 15 327 0.0 0.0 0.00 0.00 0.00 82 1024.7
20260502061650 15 327 0.0 0.0 0.00 0.00 0.00 83 1024.6
20260502060148 15 327 0.0 0.0 0.00 0.00 0.00 82 1024.6
20260502054649 15 327 0.0 0.0 0.00 0.00 0.00 82 1024.5
20260502053138 15 327 0.0 0.0 0.00 0.00 0.00 82 1024.4
20260502051651 15 327 0.0 0.0 0.00 0.00 0.00 82 1024.4
20260502044652 15 327 0.0 0.0 0.00 0.00 0.00 82 1024.3
20260502043158 15 327 0.0 0.0 0.00 0.00 0.00 82 1024.2
20260502041651 15 327 0.0 0.0 0.00 0.00 0.00 82 1024.2
20260502040152 15 327 0.0 1.6 0.00 0.00 0.00 81 1024.3
20260502034651 15 327 0.0 3.2 0.00 0.00 0.00 81 1024.1
20260502033200 15 327 0.0 0.0 0.00 0.00 0.00 81 1024.3
20260502031651 15 355 0.0 1.6 0.00 0.00 0.00 80 1024.3
20260502030159 15 355 0.0 1.6 0.00 0.00 0.00 79 1024.3
20260502024650 15 355 0.0 4.8 0.00 0.00 0.00 78 1024.4
20260502023138 15 355 0.0 4.8 0.00 0.00 0.00 79 1024.5
20260502021651 16 331 0.0 8.0 0.00 0.00 0.00 79 1024.5
20260502020148 16 5 0.0 4.8 0.00 0.00 0.00 81 1024.6
20260502014650 16 286 0.0 4.8 0.00 0.00 0.00 81 1024.6
20260502013138 16 355 0.0 4.8 0.00 0.00 0.00 80 1024.7
20260502011652 16 355 0.0 3.2 0.00 0.00 0.00 80 1024.7
20260502010148 16 355 0.0 3.2 0.00 0.00 0.00 81 1024.8
20260502004651 16 355 0.0 4.8 0.00 0.00 0.00 81 1024.9
20260502003157 16 355 0.0 4.8 0.00 0.00 0.00 79 1025.2
20260502001651 16 144 0.0 0.0 0.00 0.00 0.00 77 1025.3
20260502000149 16 144 0.0 1.6 0.00 0.00 0.00 77 1025.5
20260501234650 16 144 0.0 1.6 0.00 0.00 0.00 76 1025.6
20260501233138 16 144 0.0 1.6 0.00 0.00 0.00 76 1025.6
20260501231652 16 144 0.0 6.4 0.00 0.00 0.00 78 1025.7
20260501230146 16 131 0.0 0.0 0.00 0.00 0.00 77 1025.6
20260501224650 16 160 0.0 3.2 0.00 0.00 0.00 77 1025.5
20260501223155 16 160 0.0 6.4 0.00 0.00 0.00 77 1025.4
20260501221650 16 152 1.6 6.4 0.00 0.00 0.00 77 1025.3
20260501214652 16 186 1.6 9.7 0.00 0.00 0.00 77 1025.3
20260501211652 16 143 1.6 12.9 0.00 0.00 0.00 78 1025.5
20260501210149 16 131 3.2 8.0 0.00 0.00 0.00 80 1025.5
20260501204651 16 186 3.2 11.3 0.00 0.00 0.00 82 1025.4
20260501203157 16 129 4.8 12.9 0.00 0.00 0.00 82 1025.3
20260501201651 16 155 6.4 16.1 0.00 0.00 0.00 81 1025.3
20260501194651 16 169 6.4 14.5 0.00 0.00 0.00 80 1024.9
20260501193138 16 139 6.4 16.1 0.00 0.00 0.00 79 1024.8
20260501191651 17 148 8.0 20.9 0.00 0.00 0.00 78 1024.5
20260501190151 17 201 12.9 22.5 0.00 0.00 0.00 77 1024.3
20260501183156 17 189 3.2 17.7 0.00 0.00 0.00 73 1023.9
20260501181651 18 163 11.3 16.1 0.00 0.00 0.00 70 1023.5
20260501174653 19 196 8.0 17.7 0.00 0.00 0.00 65 1023.2
20260501173155 19 206 3.2 16.1 0.00 0.00 0.00 64 1023.1
20260501171650 20 165 6.4 14.5 0.00 0.00 0.00 63 1023.0
20260501170152 20 173 9.7 24.1 0.00 0.00 0.00 61 1023.0
20260501164656 20 181 8.0 16.1 0.00 0.00 0.00 60 1022.8
20260501163155 21 192 9.7 22.5 0.00 0.00 0.00 59 1022.7
20260501161653 20 206 3.2 19.3 0.00 0.00 0.00 60 1022.7
20260501153154 22 146 9.7 24.1 0.00 0.00 0.00 56 1022.6
20260501151652 21 171 6.4 17.7 0.00 0.00 0.00 57 1022.6
20260501150151 22 160 8.0 19.3 0.00 0.00 0.00 57 1022.6
20260501144651 21 133 4.8 24.1 0.00 0.00 0.00 59 1022.6
20260501143157 21 113 9.7 20.9 0.00 0.00 0.00 60 1022.6